Weather reports worldwide

Advertisment
Exeter Airport No. 2, United Kingdom (3844): temperature & dewpoint: 15.05.2019 16:00:00 - 21.05.2019 16:00:00 (BST)Exeter Airport No. 2, United Kingdom (3844): wind speed: 15.05.2019 16:00:00 - 21.05.2019 16:00:00 (BST)Exeter Airport No. 2, United Kingdom (3844): wind direction: 15.05.2019 16:00:00 - 21.05.2019 16:00:00 (BST)Exeter Airport No. 2, United Kingdom (3844): reduced air pressure: 15.05.2019 16:00:00 - 21.05.2019 16:00:00 (BST)Exeter Airport No. 2, United Kingdom (3844): visibility: 15.05.2019 16:00:00 - 21.05.2019 16:00:00 (BST)Exeter Airport No. 2, United Kingdom (3844): sunshine duration: 15.05.2019 16:00:00 - 21.05.2019 16:00:00 (BST)Exeter Airport No. 2, United Kingdom (3844): precipitation: 15.05.2019 16:00:00 - 21.05.2019 16:00:00 (BST)
Date & Time tt [°C] td [°C] ff [km/h] ff [kn] dd ppp [hPa] vv [km] sd [min] rr [mm]
21.05.2019 16:00:00 - - - - - - - - 0,0
21.05.2019 15:00:00 18,0 7,1 4 2 NE 1019,7 50 24 0,0
21.05.2019 14:00:00 18,5 8,3 5 3 N 1019,7 75 36 0,0
21.05.2019 13:00:00 16,9 7,5 5 3 NW 1019,9 60 42 0,0
21.05.2019 12:00:00 16,2 7,9 9 5 WNW 1019,9 60 54 0,0
21.05.2019 11:00:00 16,8 8,2 9 5 N 1019,8 65 60 0,0
21.05.2019 10:00:00 15,3 8,8 5 3 NNE 1019,8 50 60 0,0
21.05.2019 09:00:00 12,2 9,2 5 3 N 1019,6 35 60 0,0
21.05.2019 08:00:00 10,0 8,7 5 3 N 1019,4 19 60 0,0
21.05.2019 07:00:00 7,6 7,4 4 2 NNE 1019,1 11 36 0,0
21.05.2019 06:00:00 4,7 4,1 4 2 NE 1018,7 1,5 0 0,0
21.05.2019 05:00:00 5,7 5,0 2 1 NNE 1018,4 4,5 0 0,0
21.05.2019 04:00:00 7,2 6,2 5 3 N 1018,2 14 0 0,0
21.05.2019 03:00:00 7,8 6,8 5 3 NNW 1017,8 12 0 0,0
21.05.2019 02:00:00 8,1 7,4 8 4 NW 1017,5 18 0 0,0
21.05.2019 01:00:00 8,6 7,9 8 4 NW 1017,4 18 - 0,0
21.05.2019 00:00:00 9,0 8,0 4 2 NW 1017,2 21 0 0,0
20.05.2019 23:00:00 9,4 7,7 8 4 WNW 1017,0 26 0 0,0
20.05.2019 22:00:00 10,1 7,0 4 2 NE 1016,7 50 0 0,0
20.05.2019 21:00:00 12,1 7,0 9 5 NW 1015,9 65 0 0,0
20.05.2019 20:00:00 15,0 7,8 13 7 NW 1015,4 70 36 0,0
20.05.2019 19:00:00 15,3 11,1 2 1 SSE 1014,8 50 0 0,0
20.05.2019 18:00:00 15,6 10,9 11 6 SSW 1014,4 50 0 0,0
20.05.2019 17:00:00 15,7 10,2 11 6 S 1014,3 50 0 0,0
20.05.2019 16:00:00 15,8 10,8 15 8 S 1014,1 40 0 0,0
20.05.2019 15:00:00 17,2 9,0 4 2 ESE 1013,9 60 6 0,0
20.05.2019 14:00:00 18,8 10,2 4 2 ENE 1013,7 60 48 0,0
20.05.2019 13:00:00 17,0 9,5 11 6 WNW 1013,8 50 36 0,0
20.05.2019 12:00:00 17,0 11,1 4 2 N 1013,9 50 36 0,0
20.05.2019 11:00:00 16,1 9,9 5 3 NNW 1013,9 45 48 0,0
20.05.2019 10:00:00 14,1 10,3 8 4 NNE 1013,9 40 18 0,0
20.05.2019 09:00:00 12,8 10,7 4 2 ENE 1013,9 23 60 0,0
20.05.2019 08:00:00 9,6 9,2 4 2 N 1013,6 16 30 0,0
20.05.2019 07:00:00 7,8 7,6 8 4 NW 1013,2 15 18 0,2
20.05.2019 06:00:00 5,7 5,5 4 2 ENE 1012,7 4,6 0 0,0
20.05.2019 05:00:00 5,9 5,5 4 2 ENE 1012,6 5 0 0,0
20.05.2019 04:00:00 6,9 6,3 2 1 N 1012,5 11 0 0,0
20.05.2019 03:00:00 7,5 6,9 5 3 NW 1012,5 18 0 0,0
20.05.2019 02:00:00 8,0 7,3 5 3 NW 1012,5 20 0 0,0
20.05.2019 01:00:00 8,5 7,6 5 3 NW 1012,4 20 - 0,0
20.05.2019 00:00:00 9,2 8,1 8 4 NW 1012,5 27 0 0,0
19.05.2019 23:00:00 9,9 8,6 8 4 WNW 1012,4 27 0 0,0
19.05.2019 22:00:00 10,7 8,8 11 6 NW 1012,2 35 0 0,0
19.05.2019 21:00:00 13,4 10,5 8 4 WNW 1011,8 45 0 0,0
19.05.2019 20:00:00 12,8 11,3 4 2 SSE 1011,5 30 0 2,4
19.05.2019 19:00:00 12,5 11,2 5 3 NNE 1011,3 1,4 0 7,0
19.05.2019 18:00:00 16,0 10,4 9 5 NNW 1010,4 11 12 0,0
19.05.2019 17:00:00 18,7 11,6 21 11 WNW 1010,1 60 42 0,0
19.05.2019 16:00:00 17,7 8,8 9 5 N 1010,2 65 6 0,0
19.05.2019 15:00:00 16,8 10,8 13 7 WNW 1010,3 45 0 0,0
19.05.2019 14:00:00 17,0 9,8 9 5 NNW 1010,4 40 18 0,0
19.05.2019 13:00:00 16,2 10,0 11 6 NNW 1010,4 40 18 0,0
19.05.2019 12:00:00 16,2 10,9 9 5 NNW 1010,3 35 18 0,0
19.05.2019 11:00:00 16,0 10,9 5 3 NNW 1010,2 28 48 0,0
19.05.2019 10:00:00 13,9 10,4 9 5 NW 1010,2 30 54 0,0
19.05.2019 09:00:00 12,5 9,7 9 5 N 1010,0 30 60 0,0
19.05.2019 08:00:00 11,2 9,4 11 6 NW 1009,8 25 36 0,0
19.05.2019 07:00:00 9,5 9,0 8 4 NW 1009,6 19 6 0,0
19.05.2019 06:00:00 7,8 6,5 2 1 N 1009,6 19 0 0,0
19.05.2019 05:00:00 8,9 7,6 5 3 NNW 1009,4 30 0 0,0
19.05.2019 04:00:00 8,9 8,0 2 1 WNW 1009,3 28 0 0,0
19.05.2019 03:00:00 9,4 8,2 2 1 NNW 1009,1 19 0 0,0
19.05.2019 02:00:00 10,6 9,7 5 3 NW 1009,0 16 0 0,0
19.05.2019 01:00:00 10,5 10,0 5 3 NW 1009,0 13 - 0,0
19.05.2019 00:00:00 9,8 9,4 2 1 E 1009,0 0,7 0 0,0
18.05.2019 23:00:00 10,6 10,2 2 1 N 1009,0 3,1 0 0,0
18.05.2019 22:00:00 10,6 9,6 2 1 WNW 1008,9 3,4 0 0,0
18.05.2019 21:00:00 11,6 10,7 4 2 WSW 1008,3 8 0 0,4
18.05.2019 20:00:00 12,3 10,6 4 2 W 1008,2 3,4 0 0,6
18.05.2019 19:00:00 13,4 9,9 8 4 SSW 1007,7 14 0 0,0
18.05.2019 18:00:00 13,4 9,8 9 5 SSW 1007,4 17 0 0,0
18.05.2019 17:00:00 13,8 9,9 11 6 SSW 1007,0 18 0 0,0
18.05.2019 16:00:00 15,2 9,2 5 3 SW 1006,9 26 0 0,0
18.05.2019 15:00:00 16,0 8,0 4 2 WSW 1006,7 30 0 0,0
18.05.2019 14:00:00 15,4 8,2 4 2 NNE 1006,7 30 0 0,0
18.05.2019 13:00:00 14,7 9,4 8 4 NW 1006,8 21 0 0,0
18.05.2019 12:00:00 13,8 9,5 9 5 WNW 1006,9 28 0 0,0
18.05.2019 11:00:00 13,7 9,4 9 5 WNW 1006,8 29 6 0,0
18.05.2019 10:00:00 13,1 8,7 8 4 NNW 1006,7 30 6 0,0
18.05.2019 09:00:00 11,9 8,7 5 3 N 1006,7 30 0 0,0
18.05.2019 08:00:00 10,0 9,8 2 1 NNE 1006,4 14 0 0,0
18.05.2019 07:00:00 8,8 8,7 4 2 ENE 1006,4 4,0 0 0,0
18.05.2019 06:00:00 8,0 7,8 0 0 N 1006,4 3,0 0 0,0
18.05.2019 05:00:00 7,7 7,4 0 0 N 1006,2 3,2 0 0,0
18.05.2019 04:00:00 7,9 7,5 0 0 N 1006,5 1,1 0 0,0
18.05.2019 03:00:00 8,1 7,4 2 1 NNE 1006,7 0,9 0 0,0
18.05.2019 02:00:00 9,4 8,8 8 4 NNW 1006,9 5 0 0,0
18.05.2019 01:00:00 9,7 9,2 4 2 WNW 1007,3 5 - 0,0
18.05.2019 00:00:00 10,1 9,5 4 2 W 1007,4 4,2 0 0,0
17.05.2019 23:00:00 10,7 9,9 4 2 NNW 1007,7 6 0 0,2
17.05.2019 22:00:00 11,1 10,0 5 3 N 1007,9 7 0 0,2
17.05.2019 21:00:00 11,8 9,8 5 3 NNW 1007,6 11 0 0,0
17.05.2019 20:00:00 12,3 9,9 5 3 NNE 1007,5 14 0 0,0
17.05.2019 19:00:00 11,9 9,8 8 4 N 1007,7 15 0 0,0
17.05.2019 18:00:00 12,3 9,4 13 7 NNE 1007,9 19 0 0,0
17.05.2019 17:00:00 12,4 9,3 9 5 N 1008,1 19 0 0,0
17.05.2019 16:00:00 13,2 9,9 8 4 NNE 1008,5 19 0 0,0
17.05.2019 15:00:00 11,5 9,2 11 6 N 1008,9 16 0 0,0
17.05.2019 14:00:00 10,8 9,0 11 6 NNE 1009,2 17 0 0,0
17.05.2019 13:00:00 11,6 8,6 13 7 NNE 1009,3 24 0 0,0
17.05.2019 12:00:00 11,7 8,6 9 5 NNE 1009,5 21 0 0,0
17.05.2019 11:00:00 10,0 8,3 8 4 NNE 1009,9 7 0 0,0
17.05.2019 10:00:00 10,5 7,5 13 7 NNE 1010,1 17 6 0,0
17.05.2019 09:00:00 10,1 6,9 13 7 NNE 1010,6 19 42 0,0
17.05.2019 08:00:00 9,7 7,1 9 5 NNE 1010,8 22 54 0,0
17.05.2019 07:00:00 7,4 5,3 5 3 NNE 1011,2 30 30 0,0
17.05.2019 06:00:00 4,2 3,0 2 1 ENE 1011,6 20 0 0,0
17.05.2019 05:00:00 3,7 2,4 4 2 NE 1011,6 24 0 0,0
17.05.2019 04:00:00 3,9 2,4 2 1 NE 1012,1 20 0 0,0
17.05.2019 03:00:00 4,2 3,1 5 3 NE 1012,4 22 0 0,0
17.05.2019 02:00:00 4,7 4,0 4 2 NE 1012,9 19 0 0,0
17.05.2019 01:00:00 4,1 3,2 2 1 E 1013,4 15 - 0,0
17.05.2019 00:00:00 4,9 3,3 2 1 NE 1013,9 23 0 0,0
16.05.2019 23:00:00 6,4 3,9 2 1 E 1014,1 22 0 0,0
16.05.2019 22:00:00 8,1 3,8 2 1 E 1014,4 30 0 0,0
16.05.2019 21:00:00 11,8 3,4 4 2 NNE 1014,4 35 0 0,0
16.05.2019 20:00:00 12,4 5,2 4 2 E 1014,5 35 0 0,0
16.05.2019 19:00:00 13,9 3,0 11 6 ESE 1014,7 40 0 0,0
16.05.2019 18:00:00 14,6 2,4 16 9 ESE 1015,0 40 0 0,0
16.05.2019 17:00:00 15,0 1,2 21 11 ESE 1015,4 50 0 0,0
16.05.2019 16:00:00 15,6 3,2 18 10 ESE 1015,9 40 6 0,0
16.05.2019 15:00:00 15,9 2,4 22 12 SE 1016,6 23 60 0,0
16.05.2019 14:00:00 15,4 3,3 21 11 ESE 1017,2 40 54 0,0
16.05.2019 13:00:00 16,3 2,1 21 11 ESE 1017,6 35 60 0,0
16.05.2019 12:00:00 15,7 3,9 21 11 ESE 1018,0 35 60 0,0
16.05.2019 11:00:00 14,5 7,5 13 7 SE 1018,4 23 60 0,0
16.05.2019 10:00:00 13,0 5,9 11 6 E 1018,8 24 24 0,0
16.05.2019 09:00:00 11,4 5,1 4 2 NNE 1019,2 21 18 0,0
16.05.2019 08:00:00 9,1 6,0 4 2 NNE 1019,2 16 0 0,0
16.05.2019 07:00:00 7,6 5,6 5 3 NE 1019,2 15 0 0,0
16.05.2019 06:00:00 4,6 3,9 4 2 NNE 1019,3 10 0 0,0
16.05.2019 05:00:00 3,3 2,5 4 2 NE 1019,6 9 0 0,0
16.05.2019 04:00:00 4,0 2,5 2 1 NE 1020,5 17 0 0,0
16.05.2019 03:00:00 4,5 3,1 2 1 NE 1020,6 22 0 0,0
16.05.2019 02:00:00 3,7 2,5 4 2 ENE 1021,3 20 0 0,0
16.05.2019 01:00:00 5,1 3,5 4 2 ENE 1021,7 27 - 0,0
16.05.2019 00:00:00 6,5 3,6 0 0 N 1022,0 29 0 0,0
15.05.2019 23:00:00 6,6 2,7 0 0 N 1022,3 35 0 0,0
15.05.2019 22:00:00 7,5 2,9 4 2 E 1022,7 35 0 0,0
15.05.2019 21:00:00 10,3 3,0 5 3 SE 1022,9 35 6 0,0
15.05.2019 20:00:00 13,2 2,9 11 6 SE 1022,9 35 60 0,0
15.05.2019 19:00:00 15,0 2,7 15 8 SE 1022,9 35 54 0,0
15.05.2019 18:00:00 15,6 3,3 16 9 SE 1023,4 35 60 0,0
15.05.2019 17:00:00 15,6 3,7 22 12 SE 1024,0 30 60 0,0
15.05.2019 16:00:00 16,2 4,7 18 10 SE 1024,2 28 54 0,0

tt = temperature
td = dewpoint
ff = wind speed
dd = wind direction
ppp = reduced air pressure
vv = visibility
sd = sunshine duration
rr = precipitation

Next stations